Location: Casale Granaraccio
(41.9167°N, 12.7333°E)
Time: 14:21:15
(UTC+00:00)

Daily predictions for brighter satellites

Satellite Brightness Start Highest point End
(mag) Time Altitude Azimuth Time Altitude Azimuth Time Altitude Azimuth
Unknown 4.4 16:45:37 10° WSW 16:49:39 51° NNW 16:53:43 10° NE
Cosmos 1821 Rocket 4.1 16:43:51 10° N 16:49:49 53° ENE 16:55:48 10° SSE
Cosmos 921 Rocket 3.7 16:46:25 10° SSE 16:50:29 34° E 16:54:33 10° NE
Unknown 4.4 16:47:17 10° WSW 16:51:19 50° NNW 16:55:22 10° NE
Unknown 4.4 16:48:59 10° WSW 16:53:00 48° NNW 16:57:02 10° NE
Nadezhda 3 Rocket 4.0 16:49:46 10° S 16:55:58 70° E 17:02:17 10° NNE
BREEZE-M DEB (TANK) 3.9 16:50:30 10° SW 16:56:55 36° SSE 16:59:38 10° E
Cosmos 2084 3.6 16:52:58 10° SSW 16:57:32 86° SE 17:02:02 10° NE
Cosmos 2263 Rocket 4.4 16:53:01 10° WSW 16:57:37 25° NW 17:02:13 10° N
CSL-04 Rocket 4.2 16:52:53 10° SE 16:57:58 38° ENE 17:03:01 10° N
Abrixas rocket 4.1 16:57:14 10° S 16:59:03 15° SE 17:00:51 10° E
NOAA 12 4.1 16:53:59 10° SSE 16:59:14 80° ENE 17:04:33 10° N
Cosmos 1934 Rocket 4.4 16:56:49 10° N 17:02:50 44° ENE 17:08:51 10° SSE
COSMO-SKYMED 1 2.7 16:59:00 10° NNE 17:03:16 54° E 17:07:30 10° S
OAO 2 Rocket 4.4 16:59:57 10° WSW 17:04:50 39° S 17:09:46 10° ESE
ASTEX 1 3.5 17:02:38 10° NNE 17:07:28 52° E 17:12:18 10° S
USA 116 4.0 17:05:44 10° NE 17:08:34 30° E 17:11:32 10° SSE
Cosmos 1626 3.5 17:09:07 10° NNW 17:12:40 43° W 17:16:12 10° SSW
CZ-2D R/B 4.4 17:10:04 10° ESE 17:13:06 23° ENE 17:16:09 10° NNE
Cosmos 1825 Rocket 3.6 17:08:45 10° N 17:13:08 84° W 17:17:31 10° S
Cosmos 1271 Rocket 2.7 17:09:27 10° N 17:13:25 74° E 17:17:24 10° SSE
Cosmos 1833 Rocket 4.0 17:10:55 10° N 17:15:00 20° NE 17:18:08 13° E
Cosmos 1953 Rocket 3.5 17:10:39 10° N 17:15:01 68° E 17:19:19 10° SSE
Cosmos 1354 Rocket 4.0 17:10:43 10° NNW 17:15:59 83° ENE 17:21:13 10° SSE
Cosmos 1726 2.4 17:13:36 10° SSE 17:17:03 41° E 17:20:30 10° NNE
SL-4 R/B 1.7 17:13:20 10° NW 17:17:14 84° NNE 17:20:41 11° ESE
SWAS 4.4 17:16:31 10° SSW 17:20:47 86° ESE 17:25:05 10° NNE
Cosmos 968 Rocket 3.7 17:15:43 10° NNW 17:21:00 79° WSW 17:26:15 10° SSE
EO 1 Delta rocket 4.1 17:18:27 10° SE 17:22:50 43° ENE 17:27:19 10° N
Cosmos 1606 Rocket 4.0 17:21:36 10° SSW 17:25:58 65° W 17:30:19 10° N
Ariane Rocket 3.7 17:22:25 10° SE 17:26:53 32° ENE 17:31:22 10° N
Cosmos 1242 Rocket 2.6 17:26:10 10° N 17:29:48 56° ENE 17:33:25 10° SSE
Unknown 3.8 17:28:57 10° NNW 17:31:15 25° NNE 17:31:50 23° NE
Cosmos 1703 3.5 17:28:23 10° N 17:32:12 47° ENE 17:35:59 10° SSE
Cosmos 1953 3.8 17:29:06 10° SSW 17:32:57 42° WNW 17:36:51 10° N
Cosmos 2082 Rocket 3.5 17:30:35 10° N 17:34:46 20° NE 17:36:26 18° ENE
COSMOS 2406 3.3 17:30:53 10° NNW 17:36:34 56° ENE 17:42:12 10° SE
CSL-04 Debris 4.1 17:33:57 10° SSE 17:39:23 85° ENE 17:44:54 10° NNW
Cosmos 292 Rocket 3.6 17:36:17 10° SSW 17:41:00 74° ESE 17:45:45 10° NNE
Lacrosse 5 3.4 17:38:52 10° NNW 17:42:43 21° NNE 17:44:44 17° NE
Cosmos 1812 Rocket 4.4 17:40:50 10° SSE 17:44:36 28° E 17:48:24 10° NNE
Cosmos 489 Rocket 4.4 17:38:54 10° SSW 17:45:06 76° ESE 17:51:18 10° NNE
NOSS 3-2 (A) 4.3 17:40:42 10° SSE 17:45:13 25° ESE 17:46:25 23° E
Meteor 2-10 3.9 17:42:48 10° S 17:47:55 90° E 17:52:59 10° N
Cosmos 1777 Rocket 4.2 17:43:26 10° N 17:48:31 49° ENE 17:52:10 18° SE
Cosmos 839 Rocket 4.1 17:43:22 10° NNW 17:49:36 72° ENE 17:56:44 10° SE
IRS-1A Rocket 4.4 17:45:01 10° SE 17:50:15 46° ENE 17:55:30 10° N
Meteor 1-11 4.2 17:44:48 10° N 17:50:34 70° E 17:56:20 10° SSE
Cosmos 1461 4.3 17:48:45 10° N 17:51:48 21° NE 17:51:48 21° NE
YAOGAN 1 2.9 17:49:35 10° S 17:53:53 66° W 17:58:12 10° NNW
HJ-1C 4.2 17:55:34 34° NE 17:55:34 34° NE 17:58:03 10° N
Cosmos 1844 Rocket 4.2 17:50:14 10° SW 17:55:25 36° WNW 18:00:38 10° N
YAOGAN 6 3.9 17:52:41 10° S 17:56:11 42° W 17:59:41 10° NNW
H-2A R/B 3.4 17:57:22 21° NE 17:57:22 21° NE 18:00:43 10° NNE
Cosmos 1939 Rocket 2.7 17:56:32 10° SSE 18:00:28 73° ENE 18:04:29 10° N
Lacrosse 5 rocket 2.4 18:02:20 10° WNW 18:05:56 40° SW 18:08:32 18° SSE
Cosmos 1908 3.5 18:02:05 10° SSW 18:05:58 70° W 18:09:52 10° N
Cosmos 2278 Rocket 2.1 18:08:11 10° SSW 18:13:51 82° ESE 18:19:33 10° NNE
Cosmos 482 Debris 3.8 18:09:28 10° WNW 18:13:52 74° SW 18:13:57 73° SSW
Shenzhou-11 Module 3.2 18:13:30 10° W 18:15:24 38° WNW 18:15:24 38° WNW
CZ-4 R/B 3.9 18:18:15 10° SSW 18:21:36 24° W 18:25:00 10° NW
ATLAS 5 CENTAUR R/B 4.4 18:22:53 10° WNW 18:25:23 14° NNW 18:28:02 10° N
OAO 3 Rocket 4.1 18:29:51 10° WSW 18:34:24 37° S 18:34:26 37° S
Abrixas rocket 4.2 18:31:32 10° WSW 18:32:58 25° WSW 18:32:58 25° WSW
Cosmos 1459 Rocket 4.0 18:28:42 10° N 18:34:47 55° E 18:35:04 55° E
ADEOS Rocket 3.5 18:32:52 10° NNE 18:40:28 57° E 18:47:31 10° S
Cosmos 1727 Rocket 4.1 18:34:23 10° SSW 18:40:33 73° W 18:46:45 10° N
SJ-11-01 4.3 18:42:02 70° N 18:42:02 70° N 18:46:12 10° NNW
Cosmos 1802 Rocket 4.1 18:44:07 10° N 18:49:49 58° NE 18:49:49 58° NE
ARGOS 4.0 18:57:06 39° N 18:57:06 39° N 19:00:35 10° N
Cosmos 2173 Rocket 3.8 18:50:32 10° N 18:56:51 82° E 18:56:56 82° E
Cosmos 1833 Rocket 2.8 18:53:52 10° NNW 18:59:28 68° WSW 18:59:53 66° SW
BREEZE M DEB (TANK) 3.3 18:56:57 10° WNW 18:59:45 59° WSW 18:59:45 59° WSW
Gbstr 26 Del rocket 4.1 19:01:51 10° NW 19:08:26 73° NNE 19:08:27 73° NNE
USA 238 DEB 3.8 19:02:18 10° SW 19:08:59 72° NW 19:11:09 46° NNE
USA 238 3.8 19:02:25 10° SW 19:09:05 73° NW 19:11:10 47° NNE
USA 234 3.9 19:17:27 41° SSW 19:17:27 41° SSW 19:21:35 10° SW
Cosmos 2100 Rocket 4.2 19:09:50 10° NNW 19:15:59 66° W 19:16:25 64° WSW
Cosmos 2082 Rocket 2.8 19:13:43 10° NNW 19:18:18 55° NW 19:18:18 55° NW
Lacrosse 5 3.5 19:21:24 10° NW 19:23:56 29° NW 19:23:56 29° NW
NOSS 3-2 (A) 4.3 19:29:49 10° SW 19:33:54 43° W 19:33:54 43° W
H-2A R/B 3.6 19:38:01 32° NW 19:38:01 32° NW 19:41:00 10° NNW
H-2A R/B 4.4 19:32:23 10° WSW 20:04:27 48° SSW 20:04:27 48° SSW
